DELTA 1 DEB, 1312

Orbit data source: Space-Track

DELTA 1 DEB, 1312 is space debris in SSO originally from a launch on Fri, 22 Jan 1965 UTC launched from the Air Force Eastern Test Range (AFETR). Debris objects in space refer to the collection of defunct objects orbiting the Earth. Examples of debris include non-operational satellites, rocket bodies, and fragments generated from explosions, collisions, or faulty payload assembly.

Loading next visibility...
DELTA 1 DEB details
Identifier
1312, 1965-004C
Orbit
SSO
Last TLE update5 days ago
Origin
Flag of USGSFC (US)
ManufacturerUnknown
MissionSpacecraft
Bus & MotorUnknown
Mass~1 kg wet, ~1 kg dry
Launch date (UTC)
1965-01-22 (60 years ago)
Launch vehicleUnknown
Launch site
Air Force Eastern Test Range (AFETR)
Object type
Payload
Rocket body
Debris
Shape & HBRBox + 1 Cable, 3.5 m
Radar Cross Section6.125 m², Small (<0.1 m²)

Expand to show TLE details & history

TLE from 5 days ago
0 DELTA 1 DEB
1 01312U 65004C   25014.08704064  .00000142  00000-0  15857-3 0  9999
2 01312  96.3497 252.6793 1116464 193.5939 163.2616 12.28064924662864
Epoch: 2025-01-14T02:05Z
Definitive object data (Epoch: 2025-01-14T02:05:20.311Z)
Latitude0.00005°
Longitude107.54589°
Altitude2,415.991 km
Speed6.36 km/s
True Right ascension16h 50m 43s
True Declination0° 00' 00"
Sunlit
Object was in daylight at TLE epoch
Visualization TLE readout
Latitude-72.06235°
Longitude-90.0274°
Altitude1,193.845 km
Speed7.434 km/s
Apparent Right ascension05h 07m 06s
Apparent Declination-58° 08' 02"
Sunlit
Object is in daylight
Visualization observer readout
Local Sidereal Time17:47:42
Azimuth163.689° S
Elevation-70.654°
Doppler factor1
Orbital elements
Apogee altitude2,440.582 km
Perigee altitude669.195 km
Semi-major axis7,933.025 km
Eccentricity0.1116464
Inclination96.3497°
RAAN252.6793°
Arg. of periapsis193.5939°
True anomaly166.50848°
Mean anomaly163.2616°
Eccentric anomaly164.92529°
Mean motion3.07174 °/min
BSTAR0.00015857
Orbital period117.2 mins
Loading maneuver chart data...
Loading historical data...
Loading historical data...
Loading historical data...
Loading historical data...
Loading historical data...
Loading historical data...
Loading historical data...
Other satellites on launch #4 in the year 1965 (1965-01-22 UTC)

DELTA 1 DEB Visibility forecast

Observer location: undefined°, undefined

Span
Click to sort rows by Start time (UTC) header in descending order
Start Az.
Max El. time (UTC)
Max El. Az.
Max El.
End time (UTC)
End Az.
18 mins2025-01-18 17:38:46.445Z226.156° WSW2025-01-18 17:47:46.445Z270.59° WNW22.152°2025-01-18 17:56:46.445Z322.71° NNW
9 mins2025-01-19 04:03:46.445Z19.683° NNE2025-01-19 04:08:46.445Z119.642° SE40.484°2025-01-19 04:12:46.445Z176.331° S
4 mins2025-01-19 06:01:46.445Z320.685° NNW2025-01-19 06:02:46.445Z309.956° NW14.24°2025-01-19 06:05:46.445Z275.102° WNW
12 mins2025-01-19 13:19:46.445Z91.137° ESE2025-01-19 13:25:46.445Z58.869° ENE19.127°2025-01-19 13:31:46.445Z22.2° NNE
21 mins2025-01-19 15:08:46.445Z154.13° SSE2025-01-19 15:19:46.445Z89.22° E43.548°2025-01-19 15:29:46.445Z354.864° N
|